This is the latest recevied weather packets stored in our database for station/object DL1MX-13. If no packets are shown the sender has not sent any weather packets the latest 1 day(s).
| Time | Temp. | Humidity | Pressure | Rain* | Wind** | Luminosity | Snow |
|---|---|---|---|---|---|---|---|
| 1777993682 | 12.78° C | 89% | 1008.6 hPa | 0 mm | 3.13 m/s, 225° | - | - |
| 1777993622 | 12.78° C | 89% | 1008.6 hPa | 0 mm | 3.13 m/s, 225° | - | - |
| 1777993562 | 12.78° C | 89% | 1008.7 hPa | 0 mm | 2.68 m/s, 215° | - | - |
| 1777993502 | 12.78° C | 89% | 1008.7 hPa | 0 mm | 2.68 m/s, 215° | - | - |
| 1777993442 | 12.78° C | 89% | 1008.8 hPa | 0 mm | 2.68 m/s, 215° | - | - |
| 1777993381 | 12.78° C | 88% | 1008.8 hPa | 0 mm | 1.34 m/s, 230° | - | - |
| 1777993322 | 12.78° C | 88% | 1008.7 hPa | 0 mm | 1.34 m/s, 230° | - | - |
| 1777993261 | 12.78° C | 88% | 1008.8 hPa | 0 mm | 1.34 m/s, 230° | - | - |
| 1777993202 | 12.78° C | 88% | 1008.8 hPa | 0 mm | 1.79 m/s, 210° | - | - |
| 1777993141 | 12.78° C | 88% | 1008.8 hPa | 0 mm | 1.79 m/s, 210° | - | - |
| 1777993082 | 12.78° C | 88% | 1008.8 hPa | 0 mm | 1.79 m/s, 210° | - | - |
| 1777993022 | 12.78° C | 88% | 1008.8 hPa | 0 mm | 1.79 m/s, 210° | - | - |
| 1777992962 | 12.78° C | 88% | 1008.8 hPa | 0 mm | 1.79 m/s, 217° | - | - |
| 1777992902 | 12.78° C | 88% | 1008.8 hPa | 0 mm | 1.79 m/s, 217° | - | - |
| 1777992841 | 12.78° C | 88% | 1008.8 hPa | 0 mm | 1.79 m/s, 217° | - | - |
| 1777992782 | 12.78° C | 88% | 1008.8 hPa | 0 mm | 1.79 m/s, 220° | - | - |
| 1777992721 | 12.78° C | 88% | 1008.8 hPa | 0 mm | 1.79 m/s, 220° | - | - |
| 1777992662 | 12.78° C | 88% | 1008.8 hPa | 0 mm | 1.79 m/s, 220° | - | - |
| 1777992602 | 12.78° C | 88% | 1008.8 hPa | 0 mm | 2.24 m/s, 212° | - | - |
| 1777992542 | 12.78° C | 88% | 1008.8 hPa | 0 mm | 2.24 m/s, 212° | - | - |
| 1777992482 | 12.78° C | 88% | 1008.8 hPa | 0 mm | 3.13 m/s, 220° | - | - |
| 1777992422 | 12.78° C | 88% | 1008.8 hPa | 0 mm | 3.13 m/s, 220° | - | - |
| 1777992362 | 12.78° C | 88% | 1008.9 hPa | 0 mm | 3.13 m/s, 220° | - | - |
| 1777992302 | 12.78° C | 88% | 1008.8 hPa | 0 mm | 3.13 m/s, 220° | - | - |
| 1777992242 | 12.78° C | 88% | 1008.9 hPa | 0 mm | 3.13 m/s, 220° | - | - |
* Rain since midnight (hover to see other rain measurements)
** Current wind speed in m/s (hover to see current wind gust speed)